Temperature
4 4 4 3 3 3 2 2 1 1 1 2 2 3 2 2 2 2 2 2 2 2 2 2 2 3 3 2 3 3 3 3 3 3 4 4 4 4
4 3 3 3 3 2 2 2 1 1 1 1 2 2 2 2 2 2 2 2 2 2 2 2 2 2 2 2 2 2 2 3 3 3 3 3 4 4
3 3 3 3 2 2 2 2 1 1 1 1 1 2 2 2 2 2 2 2 2 2 2 2 2 2 2 2 2 2 2 3 3 3 3 3 4 4
3 3 3 2 2 2 2 1 1 1 1 1 1 1 1 1 1 2 2 2 2 2 2 2 2 2 2 2 2 2 2 2 2 3 3 3 3 3
2 2 2 2 2 2 1 1 1 1 0 0 1 1 1 1 1 2 2 2 2 2 2 2 2 2 2 2 2 2 2 2 2 2 2 3 3 3
2 2 2 1 1 1 1 1 1 1 0 0 0 0 0 1 1 1 1 1 2 2 2 1 1 1 2 2 2 2 2 2 2 2 2 2 2 3
2 1 1 1 1 1 0 0 0 0 0 -0 -0 -0 0 0 0 0 0 1 1 1 1 1 1 1 1 1 1 2 2 2 2 2 2 2 2 2
1 1 1 1 1 1 0 0 -0 -0 -0 -1 -0 -1 -0 -0 -0 -0 -0 -0 0 1 0 1 1 1 1 1 1 1 2 2 2 2 2 2 2 2
1 1 1 1 0 0 0 0 0 -0 -1 -1 -1 -1 -1 -1 -1 -0 -0 -0 -0 -0 0 1 1 1 1 1 1 1 1 1 1 1 1 2 2 2
1 0 0 0 0 0 0 0 0 -0 -0 -1 -1 -1 -1 -1 -1 -1 -1 -0 0 0 -0 -0 1 1 1 1 1 1 1 1 1 1 1 1 1 1
0 0 0 -0 -0 -0 -0 -0 -0 -0 -0 -0 -1 -1 -0 -1 -1 -0 -0 -0 -0 0 -0 -1 -0 0 1 1 1 1 1 1 1 1 1 1 1 1
0 0 -0 -0 -0 -1 -1 -1 -1 -1 -1 -0 -0 -0 -0 -0 -0 -1 -1 -1 -1 -1 -1 -1 -1 -1 -1 0 0 0 0 0 0 0 0 0 0 1
-1 -1 -1 -1 -1 -1 -1 -1 -1 -1 -1 -1 -1 -1 -0 -0 -0 -1 -1 -1 -1 -1 -1 -1 -1 -1 -1 -1 -0 -0 -0 -0 -0 -0 -0 -0 -0 -0
-1 -1 -1 -1 -1 -1 -1 -1 -1 -1 -1 -1 -1 -1 -1 -1 -1 -1 -1 -1 -1 -1 -1 -1 -2 -2 -2 -2 -1 -1 -1 -1 -0 -1 -1 -1 -0 -0
-1 -1 -2 -1 -1 -1 -1 -2 -2 -2 -2 -2 -2 -2 -1 -1 -1 -1 -1 -1 -1 -1 -1 -2 -2 -2 -2 -2 -2 -1 -1 -1 -1 -1 -1 -1 -1 -1
-2 -2 -2 -2 -2 -2 -2 -2 -2 -2 -2 -2 -2 -2 -2 -2 -2 -2 -1 -1 -1 -1 -1 -2 -2 -2 -2 -2 -2 -2 -2 -2 -2 -1 -1 -1 -1 -1
-2 -2 -2 -2 -2 -2 -2 -2 -2 -2 -3 -3 -2 -2 -2 -2 -2 -2 -2 -2 -2 -2 -2 -2 -2 -2 -2 -2 -2 -2 -2 -2 -2 -1 -1 -1 -1 -1
-3 -3 -3 -3 -3 -3 -3 -3 -3 -3 -3 -3 -3 -3 -3 -2 -2 -2 -2 -2 -2 -2 -2 -2 -2 -2 -2 -2 -2 -2 -2 -2 -2 -2 -1 -2 -1 -1
-3 -3 -3 -3 -3 -3 -4 -3 -3 -3 -3 -3 -3 -3 -3 -3 -3 -3 -3 -2 -2 -2 -2 -2 -2 -2 -2 -2 -2 -2 -2 -2 -2 -2 -2 -2 -2 -2
-4 -4 -4 -4 -4 -4 -4 -4 -4 -4 -3 -3 -3 -3 -3 -3 -3 -3 -3 -3 -3 -2 -2 -2 -2 -2 -2 -3 -3 -3 -2 -2 -2 -2 -2 -2 -2 -2
-4 -4 -4 -4 -4 -4 -4 -4 -4 -4 -4 -4 -4 -4 -4 -3 -3 -3 -3 -3 -3 -3 -3 -3 -3 -3 -2 -3 -3 -3 -2 -2 -2 -2 -2 -2 -2 -2
-4 -4 -4 -4 -4 -4 -4 -4 -4 -4 -4 -4 -4 -4 -4 -4 -4 -3 -3 -3 -3 -3 -3 -3 -3 -3 -3 -3 -3 -3 -2 -2 -2 -2 -2 -2 -2 -3
-5 -5 -5 -4 -4 -4 -4 -4 -4 -4 -4 -4 -4 -4 -4 -3 -3 -3 -3 -3 -3 -3 -3 -3 -3 -3 -3 -3 -3 -2 -2 -2 -2 -2 -2 -2 -3 -3
Wind_Speed
3 3 3 4 4 4 4 5 5 8 9 7 4 5 9 11 15 14 15 19 21 21 21 21 20 20 20 19 19 20 20 20 20 19 20 20 19 19
3 3 4 4 4 4 4 4 5 6 8 7 7 8 10 12 16 15 15 20 20 20 21 20 20 19 19 19 19 19 19 19 19 19 19 18 18 18
4 4 5 5 4 4 4 4 5 6 9 10 7 8 8 10 12 13 14 13 14 18 19 19 18 18 18 18 18 18 18 18 17 17 17 17 18 17
5 5 6 5 6 5 5 6 6 6 7 11 10 8 9 10 10 11 11 12 12 16 18 18 17 17 17 17 17 17 17 16 16 15 15 16 15 15
5 5 6 6 6 6 6 6 6 7 6 8 10 8 7 8 9 10 10 9 11 13 15 15 16 16 16 16 16 17 16 14 14 14 14 14 14 13
5 5 6 6 7 7 7 7 6 7 7 8 8 8 7 7 7 8 10 8 9 10 12 13 14 15 15 15 16 16 15 13 13 13 12 11 12 12
5 5 6 8 9 8 7 7 7 6 7 8 8 8 8 8 8 7 9 9 8 5 7 8 9 8 10 13 14 15 13 12 12 12 12 11 11 11
6 6 7 7 10 12 13 12 10 8 8 7 8 9 10 9 8 8 8 8 7 4 6 8 6 7 7 8 14 14 12 11 11 11 11 10 10 10
5 6 6 7 10 7 10 12 10 11 11 9 9 10 10 9 9 9 8 8 8 7 6 6 5 6 7 10 14 13 12 11 11 11 10 10 10 10
5 6 6 7 8 9 7 7 7 8 9 8 8 9 9 8 8 7 7 7 7 5 4 4 5 5 7 8 12 12 11 11 11 10 10 10 10 10
6 6 6 7 12 12 7 7 8 8 10 12 12 12 13 13 10 5 5 6 7 5 3 3 4 5 5 5 8 11 12 12 11 11 11 10 11 10
5 6 9 9 12 11 6 6 8 8 8 9 9 10 9 9 10 6 5 5 5 4 3 3 4 4 4 3 4 7 8 10 12 12 11 11 11 7
5 5 6 12 12 11 9 6 8 9 6 6 7 7 6 5 5 5 4 3 4 4 3 3 3 3 2 4 4 5 5 5 7 8 10 12 12 9
5 5 7 12 12 11 8 9 10 9 4 5 6 6 6 6 5 6 6 4 3 4 4 3 2 3 3 4 4 5 5 5 5 5 6 10 10 10
5 8 10 11 10 7 8 9 7 4 4 5 6 6 5 5 5 4 5 4 4 4 4 3 2 2 2 3 3 4 4 4 5 4 5 5 5 5
5 7 9 9 7 7 7 6 4 3 4 4 5 5 5 4 4 3 3 4 4 4 5 5 3 2 2 2 2 3 3 3 4 5 5 5 5 5
5 4 3 4 5 5 4 4 4 4 4 4 4 5 5 5 4 4 3 3 3 4 5 5 5 3 1 1 2 3 3 3 3 4 4 5 5 5
5 4 4 4 5 5 5 5 4 4 4 4 4 4 4 4 4 3 3 3 3 3 4 4 4 4 3 3 2 2 3 3 4 4 3 4 5 5
4 3 4 4 5 5 5 4 5 5 4 4 4 4 4 4 4 3 3 3 3 3 3 4 4 3 4 4 4 4 3 3 4 4 4 3 3 5
3 4 4 5 5 5 5 4 5 4 4 4 4 4 4 3 3 3 3 2 3 3 3 4 4 3 2 2 2 3 5 3 3 3 4 3 3 4
4 4 4 5 5 5 5 4 4 4 4 4 3 3 3 3 3 3 2 3 2 2 3 3 4 4 2 1 2 3 4 6 4 2 3 3 4 5
5 5 5 5 5 5 5 4 4 4 4 3 3 3 3 3 3 2 2 1 2 2 2 2 3 4 3 3 3 3 4 5 7 9 8 5 2 3
5 5 5 5 5 4 4 4 5 4 4 3 3 3 2 2 2 1 1 1 1 2 2 3 4 4 3 3 3 3 5 6 5 6 8 11 11 9
Wind_Direction
277 280 282 280 275 272 271 268 280 300 301 294 295 290 308 308 308 310 306 307 308 307 307 307 307 307 306 307 307 307 308 308 304 300 297 295 293 293
283 285 288 285 282 275 272 273 264 270 285 289 291 298 304 307 310 311 306 308 308 307 307 308 308 307 307 308 307 308 309 309 307 302 297 296 295 295
295 291 290 288 288 289 285 281 276 270 281 294 293 299 297 300 309 310 310 309 308 308 312 314 313 312 311 311 311 311 312 310 310 308 303 298 296 296
291 293 294 298 294 293 290 286 283 276 278 293 302 305 302 301 303 306 315 316 312 310 315 316 319 318 316 316 316 316 314 311 312 313 312 310 306 303
280 285 292 297 297 296 293 290 289 291 283 289 299 303 304 306 312 313 312 311 317 318 319 320 321 323 324 326 326 326 323 319 318 317 316 318 320 317
281 281 286 287 288 292 294 291 295 299 297 295 300 305 305 305 310 317 319 321 319 320 322 322 323 325 327 329 330 330 328 325 325 326 326 327 329 327
289 287 287 293 298 299 301 300 299 297 301 302 302 307 310 317 317 312 313 316 312 306 319 321 322 321 326 328 330 332 333 333 330 329 330 333 333 330
291 293 293 293 301 304 305 305 304 300 299 298 300 304 305 307 308 310 312 318 312 319 321 313 319 315 319 324 328 333 337 338 336 334 335 337 337 333
286 293 300 302 307 298 300 306 307 306 302 296 295 295 300 304 306 306 307 307 298 304 313 301 314 313 319 323 331 336 341 343 344 343 342 345 348 352
281 282 286 294 299 304 303 307 304 303 302 298 287 289 294 299 296 293 294 299 295 299 302 290 307 311 321 323 334 346 346 348 349 350 357 5 5 3
282 287 291 290 301 312 314 308 310 311 313 310 306 307 311 317 321 319 318 317 310 310 316 305 310 319 320 323 337 351 354 357 3 6 11 13 10 10
295 290 296 302 307 313 310 306 307 310 316 320 322 322 321 321 325 318 302 304 305 304 323 330 316 328 327 320 338 351 355 358 2 6 13 16 14 16
305 303 300 308 310 311 312 303 302 312 315 317 317 319 326 329 329 325 315 296 292 286 307 322 317 326 316 314 330 347 356 357 358 5 11 15 15 16
299 302 306 312 311 313 314 315 318 324 323 322 321 324 328 328 325 324 324 319 303 289 300 309 300 308 316 317 321 337 347 355 3 5 4 7 11 14
299 308 316 318 318 316 317 321 325 326 324 321 318 315 314 314 319 324 333 335 345 338 327 322 310 310 312 311 320 332 336 347 360 4 2 1 360 359
314 315 319 321 322 320 319 320 319 313 315 307 307 309 316 324 328 331 337 346 355 353 356 357 360 358 343 316 318 331 338 334 345 350 355 1 3 5
322 322 328 331 334 331 328 324 324 325 324 319 316 319 324 330 331 337 341 349 358 346 350 354 352 346 348 354 354 348 348 348 343 348 0 9 7 3
330 326 327 325 322 324 325 325 325 322 320 318 317 318 321 326 332 335 341 355 1 357 350 343 345 356 15 29 26 2 3 355 350 355 7 14 8 4
328 317 314 314 315 316 316 316 318 317 316 314 316 318 321 323 329 334 342 355 4 1 354 349 354 13 28 10 359 12 9 354 355 4 8 10 360 351
321 309 306 307 307 306 307 309 312 315 317 317 318 321 323 322 328 331 341 360 360 357 0 2 4 7 23 1 338 348 1 353 355 0 355 353 350 347
313 309 305 305 306 305 305 306 306 307 309 312 317 320 321 324 327 331 342 1 6 8 9 357 342 349 349 14 22 4 2 8 10 349 341 351 4 22
309 306 306 304 305 305 305 305 304 305 308 310 315 319 319 320 323 328 343 1 7 12 11 4 359 16 35 48 40 16 7 5 17 28 32 33 30 35
308 307 305 303 302 302 302 299 297 299 302 305 309 313 318 323 326 337 351 9 26 31 37 27 19 29 36 41 42 31 21 14 18 35 41 42 53 56
Height
1496 1495 1493 1491 1489 1486 1484 1481 1477 1469 1462 1459 1458 1456 1453 1450 1446 1442 1438 1434 1430 1427 1424 1421 1417 1414 1411 1407 1404 1401 1398 1394 1391 1388 1385 1383 1381 1380
1492 1491 1489 1487 1484 1482 1480 1477 1474 1470 1462 1456 1454 1452 1448 1445 1442 1438 1434 1429 1425 1422 1419 1415 1412 1409 1405 1402 1399 1396 1393 1389 1385 1382 1379 1378 1376 1374
1489 1487 1484 1482 1480 1478 1475 1473 1470 1466 1460 1453 1451 1448 1444 1440 1436 1433 1429 1424 1420 1417 1414 1410 1407 1403 1400 1397 1394 1391 1387 1384 1380 1377 1375 1373 1371 1369
1484 1482 1480 1478 1476 1473 1471 1468 1465 1462 1457 1450 1446 1443 1440 1436 1432 1428 1424 1420 1416 1412 1409 1406 1402 1398 1395 1392 1389 1385 1382 1378 1376 1373 1370 1368 1366 1364
1480 1478 1476 1474 1471 1469 1466 1463 1460 1457 1453 1448 1442 1439 1435 1432 1428 1424 1420 1416 1412 1408 1405 1401 1398 1394 1391 1387 1384 1380 1377 1374 1371 1369 1367 1364 1362 1360
1477 1475 1472 1470 1467 1464 1462 1459 1456 1453 1449 1445 1440 1435 1432 1428 1424 1419 1414 1411 1407 1404 1401 1398 1395 1391 1387 1384 1380 1377 1374 1371 1368 1366 1363 1361 1359 1357
1473 1471 1469 1466 1464 1461 1458 1455 1452 1448 1445 1441 1437 1432 1428 1424 1420 1416 1412 1407 1403 1401 1397 1394 1391 1387 1384 1380 1377 1374 1371 1368 1366 1363 1361 1359 1357 1355
1468 1466 1464 1462 1460 1457 1454 1451 1449 1445 1442 1438 1434 1430 1425 1422 1418 1414 1410 1405 1399 1398 1394 1390 1388 1384 1381 1378 1375 1372 1369 1366 1364 1362 1360 1358 1356 1354
1464 1462 1460 1457 1455 1452 1450 1447 1444 1442 1439 1436 1431 1427 1423 1419 1415 1411 1408 1404 1400 1396 1392 1387 1385 1382 1379 1376 1373 1370 1367 1365 1363 1361 1359 1357 1355 1353
1461 1458 1456 1453 1451 1448 1445 1442 1440 1437 1435 1432 1428 1424 1420 1417 1413 1410 1406 1402 1398 1395 1392 1387 1383 1380 1377 1374 1371 1369 1366 1364 1362 1360 1359 1357 1354 1352
1457 1455 1452 1449 1447 1444 1441 1438 1435 1433 1430 1427 1424 1421 1417 1414 1411 1407 1403 1399 1395 1392 1390 1387 1382 1379 1376 1374 1371 1368 1366 1364 1362 1360 1358 1356 1354 1352
1452 1450 1448 1446 1443 1441 1438 1435 1431 1428 1426 1422 1420 1417 1414 1411 1408 1405 1401 1398 1394 1390 1388 1386 1383 1379 1376 1374 1372 1369 1366 1364 1363 1360 1358 1357 1355 1353
1448 1446 1444 1442 1440 1437 1435 1432 1429 1426 1423 1419 1416 1413 1410 1407 1404 1402 1399 1397 1393 1390 1388 1386 1383 1380 1378 1375 1372 1370 1368 1365 1363 1361 1360 1358 1356 1354
1444 1442 1440 1438 1436 1433 1431 1428 1426 1423 1420 1416 1413 1410 1407 1404 1402 1400 1397 1395 1392 1390 1387 1385 1383 1381 1378 1375 1373 1371 1369 1367 1365 1363 1361 1360 1358 1356
1441 1439 1437 1434 1432 1430 1427 1425 1422 1419 1417 1414 1411 1408 1405 1403 1400 1398 1396 1394 1391 1389 1387 1385 1383 1381 1379 1376 1374 1371 1369 1368 1367 1365 1363 1361 1359 1357
1437 1435 1433 1431 1429 1426 1424 1422 1419 1417 1414 1412 1409 1406 1404 1401 1399 1397 1394 1392 1390 1388 1386 1385 1383 1381 1379 1377 1375 1373 1371 1370 1369 1367 1365 1362 1361 1359
1434 1431 1429 1427 1425 1423 1421 1419 1416 1414 1412 1410 1407 1405 1402 1400 1398 1396 1394 1392 1390 1388 1386 1385 1384 1382 1380 1378 1376 1374 1373 1372 1370 1368 1366 1363 1362 1361
1431 1428 1426 1424 1422 1420 1418 1416 1414 1412 1410 1408 1405 1403 1401 1399 1397 1396 1394 1392 1390 1388 1387 1385 1384 1382 1380 1378 1378 1376 1374 1373 1371 1370 1367 1365 1363 1363
1428 1425 1424 1422 1420 1418 1416 1414 1412 1410 1408 1406 1404 1402 1400 1398 1397 1395 1394 1392 1390 1389 1388 1386 1385 1383 1380 1379 1379 1378 1376 1374 1373 1371 1369 1367 1366 1365
1425 1423 1421 1420 1418 1416 1414 1411 1409 1408 1406 1404 1402 1401 1399 1397 1396 1395 1394 1392 1391 1390 1388 1387 1386 1384 1382 1382 1380 1379 1378 1376 1374 1373 1371 1370 1368 1367
1422 1420 1419 1417 1415 1413 1411 1409 1407 1406 1404 1402 1401 1400 1398 1397 1396 1395 1394 1392 1392 1390 1389 1388 1387 1386 1385 1383 1382 1381 1380 1379 1377 1376 1374 1372 1370 1368
1419 1418 1416 1414 1413 1411 1409 1407 1405 1404 1402 1401 1400 1399 1398 1397 1395 1394 1394 1393 1392 1391 1390 1389 1389 1388 1386 1385 1383 1382 1382 1381 1380 1378 1377 1376 1374 1372
1417 1415 1413 1412 1410 1409 1407 1405 1404 1402 1401 1400 1399 1398 1397 1396 1395 1395 1394 1393 1392 1392 1391 1390 1390 1389 1388 1387 1386 1385 1384 1383 1382 1381 1380 1379 1378 1377